Weather History for KAXH - April, 2013

Change the Weather History Date:

Monday, April 29, 2013

  Actual Average (KHOU) Record (KHOU)
Temperature  
Mean Temperature 74 °F 73 °F  
Max Temperature 81 °F 82 °F 92 °F (1987)
Min Temperature 68 °F 63 °F 46 °F (2008)
Degree Days  
Heating Degree Days 0 0  
Month to date heating degree days 35  
Since 1 July heating degree days 1364  
Cooling Degree Days 10 8  
Month to date cooling degree days 164  
Year to date cooling degree days 273  
Growing Degree Days 24 (Base 50)    
Moisture  
Dew Point 66 °F    
Average Humidity 79    
Maximum Humidity 99    
Minimum Humidity 53    
Precipitation  
Precipitation 0.01 in 0.13 in 2.86 in (1950)
Month to date precipitation 3.17  
Year to date precipitation 13.16  
Sea Level Pressure  
Sea Level Pressure 29.89 in    
Wind  
Wind Speed 4 mph (ESE)    
Max Wind Speed 9 mph    
Max Gust Speed -    
Visibility 9 miles    
Events Rain , Thunderstorm    
T = Trace of Precipitation, MM = Missing Value Source: NWS Daily Summary

Daily Weather History Graph

Daily Weather History Graph

Search for Another Location

Airport or City:

Trip Planner

Search our weather history database for the weather conditions in past years. The results will help you decide how hot, cold, wet, or windy it might be!

Date:

Astronomy

Apr. 29, 2013 Rise Set
Actual Time 6:41 AM CDT 7:57 PM CDT
Civil Twilight 6:16 AM CDT 8:22 PM CDT
Nautical Twilight 5:46 AM CDT 8:52 PM CDT
Astronomical Twilight 5:15 AM CDT 9:23 PM CDT
Moon No Moon Rise 10:10 AM CDT (4/29)
Length of Visible Light 14h 06m
Length of Day
13h 16m
Waning Gibbous, 80% of the Moon is Illuminated
Apr 29
Waning Gibbous
May 2
Last Quarter
May 9
New
May 17
First Quarter
May 24
Full

Hourly Weather History & Observations

Time (CDT) Temp. Heat Index Dew Point Humidity Pressure Visibility Wind Dir Wind Speed Gust Speed Precip Events Conditions
9:55 AM 71.6 °F - 68.4 °F 89% 29.95 in 10.0 mi Calm Calm - N/A   Unknown
10:15 AM 73.8 °F - 66.9 °F 79% 29.95 in 10.0 mi East 4.6 mph - N/A   Unknown
10:35 AM 75.0 °F - 66.2 °F 74% 29.95 in 10.0 mi East 4.6 mph - N/A   Unknown
10:55 AM 76.3 °F - 66.4 °F 71% 29.95 in 10.0 mi ENE 4.6 mph - N/A   Scattered Clouds
11:15 AM 76.3 °F - 65.8 °F 70% 29.95 in 10.0 mi East 3.5 mph - N/A   Mostly Cloudy
11:35 AM 77.0 °F - 65.3 °F 67% 29.95 in 10.0 mi ENE 4.6 mph - N/A   Mostly Cloudy
11:55 AM 76.6 °F - 64.8 °F 67% 29.95 in 10.0 mi NE 4.6 mph - N/A   Overcast
12:15 PM 78.1 °F - 66.0 °F 66% 29.94 in 10.0 mi ENE 5.8 mph - N/A   Overcast
12:35 PM 77.9 °F - 63.7 °F 61% 29.93 in 10.0 mi ENE 8.1 mph - N/A   Overcast
12:55 PM 78.3 °F - 64.2 °F 62% 29.93 in 10.0 mi ESE 6.9 mph - N/A   Overcast
1:15 PM 78.8 °F - 64.9 °F 62% 29.92 in 10.0 mi ESE 3.5 mph - N/A   Mostly Cloudy
1:35 PM 80.8 °F 82.4 °F 64.0 °F 57% 29.91 in 10.0 mi SE 5.8 mph - N/A   Overcast
1:55 PM 79.3 °F - 63.7 °F 59% 29.91 in 10.0 mi East 3.5 mph - N/A   Mostly Cloudy
2:15 PM 81.1 °F 82.3 °F 62.4 °F 53% 29.90 in 10.0 mi East 5.8 mph - N/A   Overcast
2:35 PM 81.3 °F 82.6 °F 63.3 °F 54% 29.88 in 10.0 mi ESE 8.1 mph - N/A   Mostly Cloudy
2:55 PM 81.9 °F 83.4 °F 64.0 °F 55% 29.87 in 10.0 mi East 8.1 mph - N/A   Scattered Clouds
3:15 PM 79.9 °F - 63.3 °F 57% 29.87 in 10.0 mi SE 5.8 mph - N/A   Scattered Clouds
3:35 PM 78.1 °F - 64.4 °F 63% 29.87 in 10.0 mi SE 6.9 mph - N/A   Mostly Cloudy
3:55 PM 77.0 °F - 64.4 °F 65% 29.86 in 10.0 mi ESE 8.1 mph - N/A   Mostly Cloudy
4:15 PM 75.7 °F - 63.3 °F 65% 29.86 in 10.0 mi SE 9.2 mph - N/A   Mostly Cloudy
4:35 PM 74.1 °F - 66.6 °F 77% 29.86 in 10.0 mi SSE 9.2 mph - N/A   Mostly Cloudy
4:55 PM 73.0 °F - 66.6 °F 80% 29.86 in 10.0 mi SSE 8.1 mph - N/A   Light Drizzle
5:15 PM 72.7 °F - 66.4 °F 81% 29.87 in 10.0 mi SSE 6.9 mph - N/A Rain Light Rain
5:35 PM 72.5 °F - 66.6 °F 82% 29.87 in 10.0 mi SSE 6.9 mph - N/A Rain Light Rain
5:55 PM 72.0 °F - 67.1 °F 85% 29.86 in 10.0 mi SSE 3.5 mph - N/A Rain Light Rain
6:15 PM 71.8 °F - 67.1 °F 85% 29.87 in 10.0 mi South 3.5 mph - N/A   Scattered Clouds
6:35 PM 71.6 °F - 67.1 °F 86% 29.87 in 10.0 mi SSE 4.6 mph - N/A   Scattered Clouds
6:55 PM 71.2 °F - 66.4 °F 85% 29.86 in 10.0 mi SSE 4.6 mph - N/A Rain Light Rain
7:15 PM 70.2 °F - 66.0 °F 87% 29.86 in 7.0 mi SSE 3.5 mph - N/A Rain Light Rain
7:35 PM 69.6 °F - 67.8 °F 94% 29.85 in 7.0 mi Calm Calm - 0.01 in Rain Light Rain
7:55 PM 69.4 °F - 68.0 °F 95% 29.85 in 7.0 mi Calm Calm - N/A   Mostly Cloudy
8:15 PM 69.3 °F - 68.4 °F 97% 29.85 in 7.0 mi Calm Calm - N/A   Scattered Clouds
8:35 PM 69.4 °F - 68.5 °F 97% 29.85 in 7.0 mi Calm Calm - N/A   Scattered Clouds
8:55 PM 69.4 °F - 68.5 °F 97% 29.86 in 7.0 mi Calm Calm - N/A   Scattered Clouds
9:15 PM 69.4 °F - 68.7 °F 98% 29.86 in 7.0 mi Calm Calm - N/A Thunderstorm Clear
9:35 PM 69.3 °F - 68.7 °F 98% 29.86 in 5.0 mi ESE 3.5 mph - N/A   Clear
9:55 PM 69.4 °F - 68.9 °F 98% 29.86 in 7.0 mi ESE 3.5 mph - N/A Thunderstorm Mostly Cloudy
10:35 PM 69.3 °F - 68.5 °F 98% 29.87 in 7.0 mi SE 4.6 mph - N/A   Mostly Cloudy
10:55 PM 69.1 °F - 68.5 °F 98% 29.87 in 7.0 mi Calm Calm - N/A   Scattered Clouds
11:15 PM 68.9 °F - 68.4 °F 98% 29.87 in 5.0 mi SE 3.5 mph - N/A   Clear
11:35 PM 68.5 °F - 68.2 °F 99% 29.87 in 5.0 mi Calm Calm - N/A   Mostly Cloudy
11:55 PM 68.2 °F - 68.0 °F 99% 29.86 in 5.0 mi Calm Calm - N/A   Mostly Cloudy